Location: Lombard
(41.8800°N, 88.0080°W)
Time: 22:54:58
(UTC-05:00)

A-11 Canister half - Pass Details

Date: 05 February 2023
Orbit: 1512 x 1687 km, 47.2° (Epoch: 20 March)

Event Time Altitude Azimuth Distance (km) Brightness Sun altitude
Rises 13:37:27 0° 281° (W) 4,797 11.8 28.6°
Reaches altitude 10° 13:40:39 10° 284° (WNW) 3,788 11.3 28.3°
Maximum altitude 13:50:10 65° 6° (N) 1,674 9.4 27.5°
Drops below altitude 10° 13:59:23 10° 88° (E) 3,680 10.8 26.7°
Sets 14:02:27 0° 92° (E) 4,654 11.3 26.4°
